This is the latest recevied weather packets stored in our database for station/object F8BMG-Wx. If no packets are shown the sender has not sent any weather packets the latest 10 day(s).
| Time | Temp. | Humidity | Pressure | Rain* | Wind** | Luminosity | Snow |
|---|---|---|---|---|---|---|---|
| 1778001645 | 16.67° C | 99% | 1012.3 hPa | 0.25 mm | - | - | - |
| 1778001342 | 16.67° C | 99% | 1012.3 hPa | 0.25 mm | - | - | - |
| 1778001038 | 16.11° C | 99% | 1012.2 hPa | 0.25 mm | - | - | - |
| 1778000735 | 16.11° C | 99% | 1012.3 hPa | 0.25 mm | - | - | - |
| 1778000437 | 16.11° C | 99% | 1012.4 hPa | 0.25 mm | - | - | - |
| 1778000126 | 16.11° C | 99% | 1012.4 hPa | 0.25 mm | - | - | - |
| 1777999822 | 16.11° C | 99% | 1012.4 hPa | 0 mm | - | - | - |
| 1777999518 | 15.56° C | 99% | 1012.4 hPa | 0 mm | - | - | - |
| 1777999215 | 16.11° C | 99% | 1012.4 hPa | 0 mm | - | - | - |
| 1777998910 | 16.11° C | 99% | 1012.5 hPa | 0 mm | - | - | - |
| 1777998613 | 16.11° C | 99% | 1012.5 hPa | 0 mm | - | - | - |
| 1777998301 | 15.56° C | 99% | 1012.4 hPa | 0 mm | - | - | - |
| 1777997997 | 15.56° C | 99% | 1012.5 hPa | 0 mm | - | - | - |
| 1777997694 | 15° C | 99% | 1012.5 hPa | 0 mm | - | - | - |
| 1777997390 | 13.89° C | 99% | 1012.6 hPa | 0 mm | - | - | - |
| 1777997087 | 13.33° C | 99% | 1012.5 hPa | 0 mm | - | - | - |
| 1777996789 | 13.33° C | 99% | 1012.6 hPa | 0 mm | - | - | - |
| 1777996477 | 13.33° C | 99% | 1012.5 hPa | 0 mm | - | - | - |
| 1777996174 | 13.33° C | 99% | 1012.6 hPa | 0 mm | - | - | - |
| 1777995870 | 13.33° C | 99% | 1012.5 hPa | 0 mm | - | - | - |
| 1777995566 | 13.33° C | 99% | 1012.7 hPa | 0 mm | - | - | - |
| 1777995262 | 12.78° C | 99% | 1012.8 hPa | 1.02 mm | - | - | - |
| 1777994965 | 12.78° C | 99% | 1012.9 hPa | 1.02 mm | - | - | - |
| 1777994653 | 12.78° C | 99% | 1012.8 hPa | 1.02 mm | - | - | - |
| 1777994349 | 13.33° C | 99% | 1012.7 hPa | 1.02 mm | - | - | - |
* Rain latest hour (hover to see other rain measurements)
** Current wind speed in m/s (hover to see current wind gust speed)